KK4URH Weather Reports


Display with metric or nautical units.
time (UTC)temp
F
wind
direction
speed
MPH
gust
MPH
rain 1hr
in
rain 24hr
in
rain mn
in
humidity
%
barometer
mb
20260901080039 77 190 0.0 0.0 0.00 0.00 0.00 64 1017.5
20260901074537 77 190 0.0 0.0 0.00 0.00 0.00 64 1017.5
20260901073045 77 190 0.0 0.0 0.00 0.00 0.00 64 1017.4
20260901071513 77 190 0.0 2.0 0.00 0.00 0.00 64 1017.7
20260901070005 77 190 0.0 2.0 0.00 0.00 0.00 64 1017.6
20260901064503 77 189 0.0 1.0 0.00 0.00 0.00 64 1017.7
20260901063002 77 190 0.0 1.0 0.00 0.00 0.00 64 1017.8
20260901061506 77 191 0.0 4.0 0.00 0.00 0.00 64 1017.9
20260901060001 77 192 0.0 2.0 0.00 0.00 0.00 65 1017.9
20260901054607 77 192 0.0 1.0 0.00 0.00 0.00 65 1018.1
20260901053106 77 192 0.0 2.0 0.00 0.00 0.00 65 1018.3
20260901051557 78 181 0.0 3.0 0.00 0.00 0.00 64 1018.2
20260901050051 78 196 0.0 4.0 0.00 0.00 0.00 63 1018.1
20260901044607 79 163 0.0 3.0 0.00 0.00 0.00 62 1018.2
20260901043044 79 153 0.0 3.0 0.00 0.00 0.00 60 1018.0
20260901041543 79 180 1.0 4.0 0.00 0.00 0.00 58 1017.8
20260901040043 80 173 0.0 2.0 0.00 0.00 0.00 58 1017.7
20260901034542 80 173 0.0 2.0 0.00 0.00 0.00 58 1017.8
20260901033011 80 173 0.0 1.0 0.00 0.00 0.00 58 1017.8
20260901031510 80 173 0.0 1.0 0.00 0.00 0.00 58 1017.7
20260901030005 80 173 0.0 0.0 0.00 0.00 0.00 58 1017.7
20260901024510 81 173 0.0 0.0 0.00 0.00 0.00 57 1017.9
20260901023003 81 172 0.0 1.0 0.00 0.00 0.00 57 1017.9
20260901021503 81 172 0.0 1.0 0.00 0.00 0.00 57 1017.8
20260901020101 81 172 0.0 0.0 0.00 0.00 0.00 56 1017.9
20260901014556 81 172 0.0 1.0 0.00 0.00 0.00 56 1017.8
20260901013056 82 171 0.0 0.0 0.00 0.00 0.00 56 1017.6
20260901011603 82 171 0.0 0.0 0.00 0.00 0.00 56 1017.4
20260901010031 83 171 0.0 0.0 0.00 0.00 0.00 56 1017.3
20260901004532 83 171 0.0 1.0 0.00 0.00 0.00 53 1017.2
20260901003023 83 173 0.0 0.0 0.00 0.00 0.00 53 1017.0
20260901001523 84 173 0.0 0.0 0.00 0.00 0.00 51 1016.9
20260901000015 85 173 0.0 1.0 0.00 0.00 0.00 48 1016.8
20260831234512 87 173 0.0 0.0 0.00 0.00 0.00 46 1016.9
20260831233009 88 136 0.0 0.0 0.00 0.00 0.00 42 1016.8
20260831231508 89 96 0.0 0.0 0.00 0.00 0.00 40 1016.8
20260831230108 89 254 0.0 0.0 0.00 0.00 0.00 41 1016.8
20260831224507 90 254 0.0 0.0 0.00 0.00 0.00 39 1016.8
20260831223004 90 259 0.0 0.0 0.00 0.00 0.00 38 1016.6
20260831221504 91 191 0.0 0.0 0.00 0.00 0.00 40 1016.5
20260831220002 92 190 0.0 0.0 0.00 0.00 0.00 38 1016.7
20260831214500 92 189 0.0 0.0 0.00 0.00 0.00 38 1016.8
20260831213058 92 154 0.0 2.0 0.00 0.00 0.00 37 1017.0
20260831211558 92 150 0.0 2.0 0.00 0.00 0.00 39 1016.9
20260831210057 92 140 1.0 4.0 0.00 0.00 0.00 37 1017.1
20260831204601 93 199 0.0 3.0 0.00 0.00 0.00 36 1017.2
20260831203052 92 223 0.0 0.0 0.00 0.00 0.00 38 1017.2
20260831201551 91 236 0.0 2.0 0.00 0.00 0.00 38 1017.4
20260831200050 91 180 3.0 6.0 0.00 0.00 0.00 38 1017.4
20260831194548 91 107 1.0 4.0 0.00 0.00 0.00 39 1017.4
20260831193015 92 161 1.0 3.0 0.00 0.00 0.00 38 1017.7
20260831191514 93 188 0.0 2.0 0.00 0.00 0.00 35 1017.8
20260831190101 93 189 0.0 4.0 0.00 0.00 0.00 38 1018.0
20260831184543 93 179 0.0 0.0 0.00 0.00 0.00 40 1018.2
20260831183047 92 161 0.0 0.0 0.00 0.00 0.00 41 1018.3
20260831181533 91 161 0.0 0.0 0.00 0.00 0.00 40 1018.5
20260831180029 91 167 0.0 0.0 0.00 0.00 0.00 43 1018.6
20260831174526 90 180 0.0 0.0 0.00 0.00 0.00 44 1018.6
20260831173022 89 25 0.0 0.0 0.00 0.00 0.00 49 1018.7
20260831171518 88 14 0.0 0.0 0.00 0.00 0.00 45 1018.7
20260831170018 88 17 0.0 0.0 0.00 0.00 0.00 47 1018.9
20260831164515 88 201 0.0 1.0 0.00 0.00 0.00 47 1019.0
20260831163033 87 36 0.0 0.0 0.00 0.00 0.00 49 1019.2
20260831161512 86 25 0.0 2.0 0.00 0.00 0.00 55 1019.3
20260831160006 85 26 1.0 3.0 0.00 0.00 0.00 56 1019.4
20260831154501 86 59 1.0 3.0 0.00 0.00 0.00 59 1019.6
20260831153100 87 62 0.0 3.0 0.00 0.00 0.00 56 1019.7
20260831151556 86 189 0.0 3.0 0.00 0.00 0.00 59 1019.8
20260831150054 86 17 0.0 1.0 0.00 0.00 0.00 59 1019.8
20260831144552 85 19 0.0 2.0 0.00 0.00 0.00 60 1019.8
20260831143100 84 302 0.0 2.0 0.00 0.00 0.00 62 1019.7
20260831141547 82 210 0.0 4.0 0.00 0.00 0.00 64 1019.5
20260831140046 81 260 0.0 1.0 0.00 0.00 0.00 69 1019.4
20260831134544 79 259 0.0 1.0 0.00 0.00 0.00 72 1019.3
20260831133051 77 259 0.0 2.0 0.00 0.00 0.00 75 1019.4
20260831131546 76 242 0.0 2.0 0.00 0.00 0.00 77 1019.4
20260831130046 75 253 0.0 1.0 0.00 0.00 0.00 78 1019.4
20260831124548 74 176 0.0 1.0 0.00 0.00 0.00 79 1019.5
20260831123041 73 170 0.0 1.0 0.00 0.00 0.00 80 1019.4
20260831121511 72 170 0.0 1.0 0.00 0.00 0.00 80 1019.4
20260831120012 71 170 0.0 0.0 0.00 0.00 0.00 79 1019.3
20260831114507 70 170 0.0 0.0 0.00 0.00 0.00 79 1019.3
20260831113007 69 170 0.0 0.0 0.00 0.00 0.00 79 1019.3
20260831111513 69 157 0.0 0.0 0.00 0.00 0.00 79 1019.3
20260831110007 68 157 0.0 0.0 0.00 0.00 0.00 79 1019.3
20260831104502 68 157 0.0 0.0 0.00 0.00 0.00 79 1019.2
20260831103002 68 157 0.0 0.0 0.00 0.00 0.00 78 1019.1
20260831101502 69 157 0.0 0.0 0.00 0.00 0.00 78 1019.1
20260831100100 69 157 0.0 0.0 0.00 0.00 0.00 78 1019.0
20260831094600 69 157 0.0 0.0 0.00 0.00 0.00 78 1018.8
20260831093057 69 157 0.0 0.0 0.00 0.00 0.00 78 1018.9
20260831091555 69 157 0.0 0.0 0.00 0.00 0.00 78 1018.9
20260831090104 69 157 0.0 0.0 0.00 0.00 0.00 78 1018.9
20260831084552 70 157 0.0 0.0 0.00 0.00 0.00 78 1018.9
20260831083051 70 157 0.0 0.0 0.00 0.00 0.00 78 1018.9
20260831081550 70 157 0.0 0.0 0.00 0.00 0.00 78 1018.9